Weather History for Fort Eustis, VA

Change the Weather History Date:

Thursday, April 11, 2013

  Actual Average Record
Temperature  
Mean Temperature 73 °F -  
Max Temperature 82 °F 65 °F 82 °F (2013)
Min Temperature 64 °F 47 °F 41 °F (2006)
Cooling Degree Days 8    
Growing Degree Days 23 (Base 50)    
Moisture  
Dew Point 59 °F    
Average Humidity 62    
Maximum Humidity 77    
Minimum Humidity 42    
Precipitation  
Precipitation 0.00 in - - ()
Sea Level Pressure  
Sea Level Pressure 29.88 in    
Wind  
Wind Speed 7 mph (SSW)    
Max Wind Speed 13 mph    
Max Gust Speed 20 mph    
Visibility 10 miles    
Events      
Averages and records for this station are not official NWS values.
T = Trace of Precipitation, MM = Missing Value Source: NWS Daily Summary

Daily Weather History Graph

Daily Weather History Graph

Search for Another Location

Airport:

Trip Planner

Search our weather history database for the weather conditions in past years. The results will help you decide how hot, cold, wet, or windy it might be!

Date:

Astronomy

Apr. 11, 2013 Rise Set
Actual Time 6:37 AM EDT 7:38 PM EDT
Civil Twilight 6:10 AM EDT 8:04 PM EDT
Nautical Twilight 5:39 AM EDT 8:36 PM EDT
Astronomical Twilight 5:06 AM EDT 9:09 PM EDT
Moon 7:09 AM EDT (4/11) 9:07 PM EDT (4/11)
Length of Visible Light 13h 54m
Length of Day
13h 00m
New Moon, 2% of the Moon is Illuminated
Apr 11
New Moon
Apr 18
First Quarter
Apr 25
Full
May 2
Last Quarter
May 9
New

Hourly Weather History & Observations

Time (EDT) Temp. Heat Index Dew Point Humidity Pressure Visibility Wind Dir Wind Speed Gust Speed Precip Events Conditions
12:55 AM 71.8 °F - 58.8 °F 64% 29.92 in 10.0 mi South 4.6 mph - N/A   Clear
1:55 AM 69.3 °F - 59.5 °F 71% 29.91 in 10.0 mi South 5.8 mph - N/A   Clear
2:55 AM 68.2 °F - 60.4 °F 76% 29.89 in 10.0 mi SSW 8.1 mph - N/A   Clear
3:55 AM 67.5 °F - 59.5 °F 76% 29.88 in 10.0 mi SSW 9.2 mph - N/A   Clear
4:55 AM 66.4 °F - 57.9 °F 74% 29.89 in 10.0 mi SW 8.1 mph - N/A   Clear
5:55 AM 65.1 °F - 56.8 °F 75% 29.91 in 10.0 mi SSW 8.1 mph - N/A   Clear
6:55 AM 64.0 °F - 56.7 °F 77% 29.93 in 10.0 mi SSW 6.9 mph - N/A   Clear
7:55 AM 65.3 °F - 57.4 °F 76% 29.94 in 10.0 mi SSW 9.2 mph - N/A   Clear
8:55 AM 68.4 °F - 58.8 °F 71% 29.94 in 10.0 mi SW 8.1 mph - N/A   Clear
9:55 AM 72.3 °F - 60.1 °F 65% 29.94 in 10.0 mi Variable 6.9 mph - N/A   Clear
10:55 AM 75.4 °F - 60.8 °F 60% 29.94 in 10.0 mi SW 9.2 mph - N/A   Clear
11:55 AM 77.7 °F - 61.2 °F 57% 29.92 in 10.0 mi SW 9.2 mph 16.1 mph N/A   Clear
12:55 PM 79.5 °F - 61.5 °F 54% 29.90 in 10.0 mi SW 10.4 mph 17.3 mph N/A   Clear
1:55 PM 81.1 °F 81.8 °F 60.3 °F 49% 29.87 in 10.0 mi SW 11.5 mph 19.6 mph N/A   Clear
2:55 PM 81.1 °F 81.8 °F 60.1 °F 49% 29.86 in 10.0 mi SSW 10.4 mph 18.4 mph N/A   Clear
3:55 PM 82.8 °F 82.4 °F 57.2 °F 42% 29.83 in 10.0 mi SW 12.7 mph 18.4 mph N/A   Clear
4:55 PM 80.2 °F 80.5 °F 57.2 °F 45% 29.81 in 10.0 mi SSW 9.2 mph 18.4 mph N/A   Clear
5:55 PM 79.0 °F - 57.7 °F 48% 29.82 in 10.0 mi SW 12.7 mph - N/A   Clear
6:55 PM 76.6 °F - 57.6 °F 52% 29.81 in 10.0 mi SSW 3.5 mph - N/A   Clear
7:55 PM 74.1 °F - 57.9 °F 57% 29.81 in 10.0 mi SSE 3.5 mph - N/A   Clear
8:55 PM 74.3 °F - 58.5 °F 58% 29.81 in 10.0 mi SSE 5.8 mph - N/A   Clear
9:55 PM 73.9 °F - 58.6 °F 59% 29.81 in 10.0 mi SSE 6.9 mph - N/A   Clear
11:55 PM 71.4 °F - 64.0 °F 77% 29.81 in 10.0 mi Variable 6.9 mph - N/A   Clear